Regional Weather Roundup
Issued by NWS

Home | Current Version | Previous Version | Graphics & Text | Print | Product List | Glossary On
Versions: 1 2 3 4 5 6 7 8 9 10 11 12 13 14 15 16 17 18 19 20 21 22 23 24 25 26 27 28 29 30 31 32 33 34 35 36 37 38 39 40 41 42 43 44 45 46 47 48 49 50
000
ASUS45 KCYS 271410
RWRWY

WYOMING REGIONAL WEATHER ROUNDUP
NATIONAL WEATHER SERVICE CHEYENNE WY
800 AM MDT SAT MAY 27 2017

NOTE:  "FAIR" INDICATES FEW OR NO CLOUDS BELOW 12,000 FEET
WITH NO SIGNIFICANT WEATHER AND/OR OBSTRUCTIONS TO VISIBILITY.

WYZ001-271500-
YELLOWSTONE NATIONAL PARK

CITY           SKY/WX    TMP DP  RH WIND       PRES   REMARKS
LK YELLOWSTONE   N/A     34  33  96 CALM      30.25R
W YELLOWSTONE  NOT AVBL

$$
WYZ002>013-054>058-071-098>099-271500-
NORTHERN WYOMING

CITY           SKY/WX    TMP DP  RH WIND       PRES   REMARKS
JACKSON        MOSUNNY   37  36  93 CALM      30.23R
CODY           FAIR      50  36  58 SW5       30.14R
GREYBULL       FAIR      45  39  79 VRB3      30.13R
WORLAND        FAIR      44  42  93 CALM      30.13R
SHERIDAN       FAIR      54  42  64 CALM      30.07R
BUFFALO        FAIR      53  36  52 NW8       30.09R
GILLETTE       FAIR      51  42  71 W13       30.06R
HULETT         FAIR      52  41  66 SW7       30.06S
NEWCASTLE      FAIR      48  41  76 N13       30.07S

$$
WYZ014>020-022>026-101>103-271500-
CENTRAL WYOMING

CITY           SKY/WX    TMP DP  RH WIND       PRES   REMARKS
BIG PINEY      FAIR      41  30  65 NE7       30.20R
PINEDALE       FAIR      36  34  93 NW5       30.20R WCI  32
DUBOIS         FAIR      37  32  81 NW3       30.18S
LANDER         FAIR      44  40  85 CALM      30.14R
RIVERTON       FAIR      45  38  76 NW10      30.15R
CASPER         FAIR      48  41  76 NW12      30.12R
DOUGLAS        CLOUDY    46  42  86 W9        30.11R

$$
WYZ021-027>030-104>119-271500-
SOUTHERN WYOMING

CITY           SKY/WX    TMP DP  RH WIND       PRES   REMARKS
EVANSTON       CLOUDY    39  35  86 N6        30.23R WCI  35
KEMMERER         N/A     39  32  75 CALM      30.21R
FORT BRIDGER   FAIR      41  34  75 W10       30.24R
ROCK SPRINGS   CLOUDY    41  36  82 CALM      30.19R
DIXON            N/A     42  40  90 CALM      30.18R
RAWLINS        CLOUDY    41  36  82 NW12      30.16R
SARATOGA       CLOUDY    36  36 100 CALM      30.17R
LARAMIE        CLOUDY    38  35  89 N14       30.12R WCI  30
CHEYENNE       PTSUNNY   45  40  82 N10       30.09R
TORRINGTON     PTSUNNY   50  46  86 NW7       30.05R
PINE BLUFFS    FAIR      46  45  93 N14       30.07S

$$



USA.gov is the U.S. government's official web portal to all federal, state and local government web resources and services.